Location: Kermapucano
(48.0667°N, 3.3000°W)
Time: 20:01:10
(UTC+00:00)

Cosmos 1862 Rocket - Pass Details

Date: 29 November 2020
Orbit: 603 x 635 km, 82.5° (Epoch: 27 January)

Event Time Altitude Azimuth Distance (km) Brightness Sun altitude
Rises 06:45:32 0° 352° (N) 2,939 6.7 -8.9°
Reaches altitude 10° 06:47:49 10° 356° (N) 2,023 5.9 -8.6°
Maximum altitude 06:52:17 65° 78° (ENE) 692 4.1 -7.9°
Drops below altitude 10° 06:56:40 10° 161° (SSE) 1,989 6.8 -7.2°
Sets 06:58:54 0° 165° (SSE) 2,885 7.6 -6.9°
